• MPC Preparation (Info)

  • MPEC 2006-U47 : 2006 UE63

    The following Minor Planet Electronic Circular may be linked-to from your own Web pages, but must not otherwise be redistributed electronically.

    A form allowing access to any MPEC is at the bottom of this page.


    Read MPEC 2006-U46 Read MPEC 2006-U48


    M.P.E.C. 2006-U47                                Issued 2006 Oct. 23, 15:51 UT
    
         The Minor Planet Electronic Circulars contain information on unusual
             minor planets and routine data on comets.  They are published
       on behalf of Commission 20 of the International Astronomical Union by the
              Minor Planet Center, Smithsonian Astrophysical Observatory,
                              Cambridge, MA 02138, U.S.A.
    
                 Prepared using the Tamkin Foundation Computer Network
    
                                  MPC@CFA.HARVARD.EDU
              URL http://cfa-www.harvard.edu/iau/mpc.html  ISSN 1523-6714
    
                                       2006 UE63
    
    Observations:
         K06U63E  C2006 09 25.42284 02 12 07.92 +15 40 55.7          21.3 V EU047691
         K06U63E  C2006 09 25.44019 02 12 08.31 +15 41 09.1          21.3 V EU047691
         K06U63E  C2006 09 25.45756 02 12 08.69 +15 41 23.1          21.0 V EU047691
         K06U63E  C2006 10 03.43706 02 14 39.57 +17 23 15.0                 EU047691
         K06U63E  C2006 10 03.45437 02 14 39.73 +17 23 27.8                 EU047691
         K06U63E  C2006 10 03.47168 02 14 39.82 +17 23 40.3                 EU047691
         K06U63E* C2006 10 21.29812 02 13 33.25 +20 35 26.5          20.4 V EU047691
         K06U63E  C2006 10 21.31896 02 13 32.82 +20 35 37.2          20.5 V EU047691
         K06U63E  C2006 10 21.33637 02 13 32.46 +20 35 46.8          20.6 V EU047691
         K06U63E  C2006 10 21.99248 02 13 22.57 +20 41 30.8                 EU047J95
         K06U63E  C2006 10 21.99951 02 13 22.44 +20 41 34.3                 EU047J95
         K06U63E  C2006 10 22.00527 02 13 22.31 +20 41 37.3          20.2 R EU047J95
         K06U63E  C2006 10 22.24468 02 13 18.94 +20 43 47.1          19.9 V EU047G96
         K06U63E  C2006 10 22.25406 02 13 18.73 +20 43 52.1          20.1 V EU047G96
         K06U63E 1C2006 10 22.25742 02 13 18.68 +20 43 49.8                 EU047658
         K06U63E  C2006 10 22.26336 02 13 18.51 +20 43 56.7          19.9 V EU047G96
         K06U63E 1C2006 10 22.26851 02 13 18.52 +20 43 55.5                 EU047658
         K06U63E  C2006 10 22.27285 02 13 18.33 +20 44 01.9          20.0 V EU047G96
         K06U63E 1C2006 10 22.27528 02 13 18.38 +20 43 59.9                 EU047658
         K06U63E  C2006 10 22.32449 02 13 17.28 +20 44 29.6          19.8 R EU047651
         K06U63E  C2006 10 22.32629 02 13 17.24 +20 44 30.4          20.0 R EU047651
         K06U63E  C2006 10 22.32810 02 13 17.18 +20 44 31.3          19.8 R EU047651
         K06U63E  C2006 10 22.48132 02 13 15.72 +20 45 51.0          19.7 V EU047D35
         K06U63E  C2006 10 22.48475 02 13 15.56 +20 45 53.3          20.5 V EU047D35
         K06U63E  C2006 10 22.48815 02 13 15.55 +20 45 54.8          20.6 V EU047D35
         K06U63E  C2006 10 23.27806 02 13 02.23 +20 52 41.0          19.9 R EU047448
         K06U63E  C2006 10 23.29971 02 13 01.74 +20 52 51.9          20.6 R EU047448
         K06U63E  C2006 10 23.31788 02 13 01.32 +20 53 01.9          19.9 R EU047448
         K06U63E 5C2006 10 23.35868 02 13 00.57 +20 53 22.3          20.0 R EU047673
         K06U63E 5C2006 10 23.36539 02 13 00.43 +20 53 25.9                 EU047673
         K06U63E 5C2006 10 23.37094 02 13 00.29 +20 53 28.7                 EU047673
         K06U63E 5C2006 10 23.37627 02 13 00.21 +20 53 31.2                 EU047673
         K06U63E  C2006 10 23.43242 02 12 58.87 +20 53 56.9          19.9 R EU047734
         K06U63E  C2006 10 23.43535 02 12 58.81 +20 53 58.6          20.1 R EU047734
         K06U63E  C2006 10 23.43829 02 12 58.72 +20 53 59.3          20.3 R EU047734
    
    Observer details:
    448 Desert Moon Observatory.  Observer B. L. Stevens.  0.3-m
        Schmidt-Cassegrain + CCD.
    651 Grasslands Observatory, Tucson.  Observer J. E. McGaha.  0.62-m f/5.1
        Newtonian reflector + CCD.
    658 National Research Council of Canada.  Observer R. M. Robb.  Measurer
        D. D. Balam.  1.82-m Plaskett telescope + CCD.
    673 Table Mountain Observatory, Wrightwood.  Observer J. Young.  0.61-m f/16
        Cassegrain + CCD.
    691 Steward Observatory, Kitt Peak.  Observers J. V. Scotti, T. H. Bressi.
        0.9-m f/3 reflector + CCD.
    734 Farpoint Observatory.  Observer D. Tibbets.  Measurer G. Hug.  0.7-m
        reflector + CCD.
    D35 Lulin Observatory.  Observers H.-C. Lin, C.-S. Lin, Q.-z. Ye.  Measurer
        Q.-z. Ye.  0.41-m f/8.8 Ritchey-Chretien + 2Kx2K CCD.
    G96 Mt. Lemmon Survey.  Observer R. A. Kowalski.  Measurers E. C. Beshore,
        E. J. Christensen, G. J. Garradd, A. R. Gibbs, A. D. Grauer, R. E. Hill,
        R. A. Kowalski, S. M. Larson, R. H. McNaught.  1.5-m reflector + CCD.
    J95 Great Shefford.  Observer P. Birtwhistle.  0.40-m f/6.0 Schmidt-Cassegrain
        + CCD.
    
    Orbital elements:
    2006 UE63
    Epoch 2006 Sept. 22.0 TT = JDT 2454000.5                MPC
    M 358.34242              (2000.0)            P               Q
    n   0.11080510     Peri.   15.91181     +0.92174034     -0.38758849
    a   4.2930197      Node     6.93491     +0.34299571     +0.79908631
    e   0.6281265      Incl.    6.19755     +0.18096599     +0.45960443
    P   8.89           H   19.8           G   0.15           U   5
    Residuals in seconds of arc
    060925 691  0.0   0.1+    061022 G96  0.1+  0.2-    061022 D35  0.4-  0.5+
    060925 691  0.1+  0.2-    061022 G96  0.1-  0.2-    061023 448  1.0+  0.8-
    060925 691  0.1-  0.2+    061022 658  0.8-  0.3-    061023 448  0.8+  1.0-
    061003 691  0.3-  0.2-    061022 G96  0.5-  0.6-    061023 448  0.4+  0.2-
    061003 691  0.4+  0.0     061022 658  0.0   0.5-    061023 673  0.0   0.1-
    061003 691  0.0   0.0     061022 G96  0.3-  0.4-    061023 673  0.0   0.2+
    061021 691  0.2+  0.6+    061022 658  0.2-  0.3+    061023 673  0.3-  0.2+
    061021 691  0.2+  0.1+    061022 651  0.3+  0.1-    061023 673  0.2+  0.0
    061021 691  0.1+  0.4+    061022 651  0.3+  0.2-    061023 734  0.4+  0.1-
    061021 J95  0.1-  0.0     061022 651  0.0   0.2-    061023 734  0.4+  0.2+
    061021 J95  0.0   0.2-    061022 D35  0.3+  0.4+    061023 734  0.1-  0.5-
    061022 J95  0.3-  0.2-    061022 D35  1.1-  0.9+
    
    Ephemeris:
    2006 UE63                a,e,i = 4.29, 0.63, 6                   q = 1.5965
    Date    TT    R. A. (2000) Decl.     Delta      r     Elong.  Phase     V
    2006 10 22    02 13.37   +20 41.7    0.618    1.605   168.1     7.3    20.3
    2006 11 01    02 10.54   +21 58.3    0.631    1.619   171.7     5.1    20.3
    2006 11 11    02 08.38   +22 53.9    0.662    1.640   165.9     8.5    20.6
    2006 11 21    02 08.29   +23 33.1    0.712    1.668   157.3    13.2    20.9
    2006 12 01    02 11.20   +24 02.9    0.780    1.702   148.6    17.5    21.3
    2006 12 11    02 17.32   +24 29.4    0.865    1.740   140.4    21.1    21.7
    
    Timothy B. Spahr             (C) Copyright 2006 MPC           M.P.E.C. 2006-U47
    

    Read MPEC 2006-U46 Read MPEC 2006-U48


    MPEC number:

    Enter an MPEC number in one of the following forms:

    • 1997-B01 (the full form)
    • J97B01 (the packed version of the full form)
    • B01 (the abbreviated form)